Date String (YYYY-MM-DD hh:mm:ss) UTC,Instrument flags,Ambient pressure (hPa),Sample flow (lpm),Bypass flow (lpm),Sample temperature (°C),Ambient temperature (°C),ASC tube jacket temperature (°C),LED temperature (°C),Box temperature (°C),Sample RH (%),Span deviation,Mass concentration (μg/m³),Mass concentration (μg/m³),Mass concentration (μg/m³)
DateTimeUTC,F1_M11,P_M11,Q1_M11,Q2_M11,T1_M11,T2_M11,T3_M11,T4_M11,T5_M11,U1_M11,ZSPAN_M11,X0_M11,X2_M11,X1_M11
2022-03-22 12:00:00,,0827.8,4.99,0.00,22.0,21.8,00.0,31.1,23.8,10.1,0000.0,0004.93,0003.11,0002.50
2022-03-22 12:01:00,,0827.8,5.01,0.00,22.1,22.7,00.0,31.1,24.1,10.0,0000.0,0005.02,0003.08,0002.49
2022-03-22 12:02:00,,0827.8,5.01,0.00,22.3,23.0,00.0,31.2,24.2,10.1,0000.0,0005.15,0003.11,0002.51
2022-03-22 12:03:00,,0827.8,5.00,0.00,22.3,22.8,00.0,31.2,24.2,10.0,0000.0,0005.14,0003.12,0002.52
2022-03-22 12:04:00,,0827.8,4.99,0.00,22.3,22.5,00.0,31.2,24.1,09.8,0000.0,0005.29,0003.15,0002.51
2022-03-22 12:05:00,,0827.8,5.01,0.00,22.3,22.2,00.0,31.2,24.1,09.7,0000.0,0005.38,0003.15,0002.49
2022-03-22 12:06:00,,0827.8,4.99,0.00,22.3,22.0,00.0,31.2,24.0,09.7,0000.0,0005.34,0003.15,0002.50
2022-03-22 12:07:00,,0827.9,5.00,0.00,22.2,21.8,00.0,31.2,23.9,09.6,0000.0,0005.39,0003.15,0002.49
2022-03-22 12:08:00,,0827.8,5.01,0.00,22.2,21.7,00.0,31.2,23.9,09.6,0000.0,0005.42,0003.17,0002.47
2022-03-22 12:09:00,,0827.8,4.98,0.00,22.2,21.6,00.0,31.2,23.9,09.6,0000.0,0005.28,0003.14,0002.45
2022-03-22 12:10:00,,0827.8,5.00,0.00,22.1,21.5,00.0,31.2,23.8,09.5,0000.0,0004.94,0003.08,0002.43
2022-03-22 12:11:00,,0827.8,5.01,0.00,22.1,21.4,00.0,31.2,23.8,09.6,0000.0,0004.72,0003.01,0002.41
2022-03-22 12:12:00,,0827.8,5.00,0.00,22.1,21.3,00.0,31.2,23.7,09.6,0000.0,0004.50,0002.97,0002.38
2022-03-22 12:13:00,,0827.9,5.00,0.00,22.0,21.2,00.0,31.1,23.7,09.6,0000.0,0004.26,0002.88,0002.33
2022-03-22 12:14:00,,0827.9,5.00,0.00,22.0,21.1,00.0,31.1,23.6,09.5,0000.0,0004.31,0002.80,0002.28
2022-03-22 12:15:00,,0827.8,5.00,0.00,22.0,21.1,00.0,31.1,23.6,09.5,0000.0,0005.03,0002.75,0002.24
2022-03-22 12:16:00,,0827.8,5.00,0.00,22.0,21.0,00.0,31.1,23.6,09.4,0000.0,0004.85,0002.69,0002.21
2022-03-22 12:17:00,,0827.9,5.00,0.00,21.9,21.1,00.0,31.1,23.5,09.3,0000.0,0004.74,0002.63,0002.17
2022-03-22 12:18:00,,0827.9,5.01,0.00,22.0,21.7,00.0,31.1,23.7,09.3,0000.0,0004.75,0002.61,0002.14
2022-03-22 12:19:00,,0827.9,5.00,0.00,22.1,22.6,00.0,31.1,24.0,09.4,0000.0,0005.51,0002.56,0002.12
2022-03-22 12:20:00,,0827.9,4.98,0.00,22.3,23.1,00.0,31.2,24.2,09.3,0000.0,0005.50,0002.55,0002.09
2022-03-22 12:21:00,,0828.0,5.00,0.00,22.3,22.8,00.0,31.2,24.2,09.3,0000.0,0005.58,0002.57,0002.07
2022-03-22 12:22:00,,0828.0,5.00,0.00,22.3,22.5,00.0,31.2,24.1,09.3,0000.0,0005.70,0002.56,0002.05
2022-03-22 12:23:00,,0827.9,5.01,0.00,22.3,22.2,00.0,31.2,24.0,09.2,0000.0,0005.83,0002.59,0002.03
2022-03-22 12:24:00,,0828.0,4.99,0.00,22.2,22.0,00.0,31.2,24.0,09.2,0000.0,0005.95,0002.63,0002.03
2022-03-22 12:25:00,,0827.9,4.98,0.00,22.2,21.8,00.0,31.2,23.9,09.2,0000.0,0005.61,0002.61,0002.02
2022-03-22 12:26:00,,0828.0,5.01,0.00,22.2,21.7,00.0,31.2,23.9,09.2,0000.0,0004.93,0002.63,0002.03
2022-03-22 12:27:00,,0828.0,5.01,0.00,22.1,21.5,00.0,31.2,23.8,09.2,0000.0,0004.96,0002.64,0002.04
2022-03-22 12:28:00,,0828.0,5.00,0.00,22.1,21.4,00.0,31.2,23.8,09.2,0000.0,0005.01,0002.66,0002.04
2022-03-22 12:29:00,,0828.0,4.99,0.00,22.1,21.3,00.0,31.2,23.8,09.3,0000.0,0004.98,0002.67,0002.04
2022-03-22 12:30:00,,0828.1,5.00,0.00,22.1,21.3,00.0,31.1,23.7,09.4,0000.0,0004.27,0002.72,0002.03
2022-03-22 12:31:00,,0828.1,4.99,0.00,22.0,21.2,00.0,31.1,23.7,09.4,0000.0,0004.27,0002.71,0002.03
2022-03-22 12:32:00,,0828.0,5.00,0.00,22.0,21.1,00.0,31.1,23.6,09.5,0000.0,0004.29,0002.71,0002.03
2022-03-22 12:33:00,,0828.0,5.01,0.00,22.0,21.1,00.0,31.1,23.6,09.5,0000.0,0004.23,0002.67,0002.00
2022-03-22 12:34:00,,0828.0,5.00,0.00,22.0,21.1,00.0,31.1,23.6,09.5,0000.0,0004.15,0002.65,0001.98
2022-03-22 12:35:00,,0828.1,5.01,0.00,22.0,21.7,00.0,31.1,23.7,09.5,0000.0,0004.07,0002.60,0001.95
2022-03-22 12:36:00,,0828.1,5.00,0.00,22.1,22.6,00.0,31.1,24.0,09.5,0000.0,0004.06,0002.58,0001.93
2022-03-22 12:37:00,,0828.0,5.02,0.00,22.3,23.1,00.0,31.2,24.2,09.4,0000.0,0003.90,0002.50,0001.88
2022-03-22 12:38:00,,0828.0,4.99,0.00,22.3,22.9,00.0,31.2,24.3,09.4,0000.0,0003.79,0002.45,0001.86
2022-03-22 12:39:00,,0828.3,5.00,0.00,22.3,22.6,00.0,31.2,24.2,09.4,0000.0,0003.77,0002.44,0001.85
2022-03-22 12:40:00,,0828.0,5.01,0.00,22.3,22.3,00.0,31.2,24.1,09.5,0000.0,0003.67,0002.39,0001.84
2022-03-22 12:41:00,,0828.1,4.98,0.00,22.3,22.1,00.0,31.2,24.0,09.5,0000.0,0003.55,0002.32,0001.83
2022-03-22 12:42:00,,0828.0,5.01,0.00,22.3,21.9,00.0,31.2,24.0,09.4,0000.0,0003.41,0002.26,0001.81
2022-03-22 12:43:00,,0828.0,4.99,0.00,22.2,21.7,00.0,31.2,23.9,09.4,0000.0,0003.29,0002.21,0001.76
2022-03-22 12:44:00,,0828.2,5.00,0.00,22.2,21.6,00.0,31.2,23.9,09.4,0000.0,0003.23,0002.21,0001.76
2022-03-22 12:45:00,,0828.1,5.00,0.00,22.2,21.5,00.0,31.2,23.8,09.4,0000.0,0003.22,0002.18,0001.74
2022-03-22 12:46:00,,0828.0,5.01,0.00,22.1,21.4,00.0,31.2,23.8,09.3,0000.0,0003.19,0002.13,0001.72
2022-03-22 12:47:00,,0828.4,5.00,0.00,22.1,21.3,00.0,31.2,23.8,09.3,0000.0,0003.13,0002.09,0001.69
2022-03-22 12:48:00,,0828.1,5.00,0.00,22.1,21.3,00.0,31.2,23.8,09.3,0000.0,0003.20,0002.11,0001.67
2022-03-22 12:49:00,,0828.0,4.99,0.00,22.1,21.2,00.0,31.2,23.7,09.2,0000.0,0003.21,0002.09,0001.64
2022-03-22 12:50:00,,0828.0,5.00,0.00,22.0,21.2,00.0,31.1,23.7,09.2,0000.0,0003.15,0002.05,0001.60
2022-03-22 12:51:00,,0828.3,5.00,0.00,22.0,21.2,00.0,31.1,23.7,09.2,0000.0,0003.19,0002.04,0001.56
2022-03-22 12:52:00,,0828.0,5.00,0.00,22.0,21.2,00.0,31.1,23.7,09.2,0000.0,0003.21,0002.03,0001.52
2022-03-22 12:53:00,,0828.2,4.99,0.00,22.0,21.3,00.0,31.1,23.7,09.2,0000.0,0003.23,0002.02,0001.50
2022-03-22 12:54:00,,0828.1,4.99,0.00,22.1,22.1,00.0,31.1,23.9,09.1,0000.0,0003.24,0002.01,0001.48
2022-03-22 12:55:00,,0828.0,5.01,0.00,22.2,23.0,00.0,31.2,24.2,09.0,0000.0,0003.21,0001.97,0001.44
2022-03-22 12:56:00,,0828.0,4.99,0.00,22.4,23.3,00.0,31.2,24.3,09.1,0000.0,0003.10,0001.93,0001.40
2022-03-22 12:57:00,,0828.1,5.00,0.00,22.4,23.0,00.0,31.2,24.3,09.1,0000.0,0003.05,0001.92,0001.38
2022-03-22 12:58:00,,0828.0,4.99,0.00,22.4,22.7,00.0,31.2,24.3,09.2,0000.0,0003.13,0001.93,0001.36
2022-03-22 12:59:00,,0828.0,5.02,0.00,22.4,22.4,00.0,31.3,24.2,09.1,0000.0,0003.15,0001.92,0001.33
